Вернуться в каталог

COSMOS 886 DEB

АктивенUNKNOWN
NORAD 9797·DEBRIS·🇷🇺 Russia

Запущен Dec 27, 1976 с Baikonur Cosmodrome

Loading…

Ближайшие Пролёты (ближайшие 24 часа)

TLE

СвежийSource: Space-Track

Эпоха: Sep 13, 2026, 14:59 UTC

1 09797U 76126X   26256.62467236  .00000544  00000-0  44160-3 0  9992
2 09797  65.8203 356.9993 0897491 146.0068 220.1934 12.81934597281297

Отслеживайте COSMOS 886 DEB в реальном времени с AllMySat

Download on the App Store